• In Deutschland
  • Länderverzeichnis
  • Für 7 Tage
  • Wassertemperatur
  • Satellitenkarten
  • Wetterkarte
  • Widgets
  • user-avatar
    Anmelden

    Stündliche Wetter Lezhe

    Heute, 11 Dezember, Montag

    Zeit Temperatur Niederschläge Wind Luftdruck Luftfeuchtigkeit
    00:00 +1°C° 0 mm 4 m/S 739 mmHg 80%
    01:00 +3°C° 0 mm 4 m/S 739 mmHg 75%
    02:00 +3°C° 0,1 mm 4 m/S 739 mmHg 75%
    03:00 +4°C° 0,1 mm 4 m/S 739 mmHg 75%
    04:00 +4°C° 0,1 mm 4 m/S 739 mmHg 75%
    05:00 +4°C° 0,2 mm 4 m/S 739 mmHg 77%
    06:00 +5°C° 0,2 mm 4 m/S 739 mmHg 79%
    07:00 +5°C° 0 mm 4 m/S 738 mmHg 81%
    08:00 +6°C° 0,1 mm 4 m/S 738 mmHg 81%
    09:00 +7°C° 0,1 mm 4 m/S 738 mmHg 80%
    10:00 +8°C° 0,1 mm 4 m/S 738 mmHg 80%
    11:00 +8°C° 0,1 mm 5 m/S 738 mmHg 80%
    12:00 +8°C° 0,1 mm 5 m/S 738 mmHg 79%
    13:00 +9°C° 0,1 mm 5 m/S 738 mmHg 79%
    14:00 +8°C° 0,1 mm 5 m/S 738 mmHg 82%
    15:00 +8°C° 0,1 mm 5 m/S 738 mmHg 84%
    16:00 +8°C° 0,1 mm 5 m/S 738 mmHg 87%
    17:00 +8°C° 0,1 mm 5 m/S 738 mmHg 87%
    18:00 +8°C° 0,1 mm 5 m/S 738 mmHg 87%
    19:00 +8°C° 0,1 mm 5 m/S 739 mmHg 87%
    20:00 +8°C° 0,2 mm 5 m/S 739 mmHg 87%
    21:00 +8°C° 0,2 mm 5 m/S 739 mmHg 86%
    22:00 +8°C° 0,2 mm 5 m/S 739 mmHg 86%
    23:00 +8°C° 0,2 mm 5 m/S 739 mmHg 86%

    Morgen, 12 Dezember, Dienstag

    Zeit Temperatur Niederschläge Wind Luftdruck Luftfeuchtigkeit
    00:00 +8°C° 0,2 mm 4 m/S 739 mmHg 86%
    01:00 +8°C° 0,2 mm 4 m/S 739 mmHg 86%
    02:00 +8°C° 0,1 mm 4 m/S 739 mmHg 86%
    03:00 +8°C° 0,1 mm 4 m/S 739 mmHg 86%
    04:00 +10°C° 0,1 mm 4 m/S 739 mmHg 86%
    05:00 +10°C° 0 mm 4 m/S 740 mmHg 87%
    06:00 +10°C° 0 mm 4 m/S 740 mmHg 87%
    07:00 +10°C° 0 mm 3 m/S 740 mmHg 87%
    08:00 +10°C° 0,1 mm 3 m/S 740 mmHg 87%
    09:00 +11°C° 0,1 mm 3 m/S 740 mmHg 87%
    10:00 +11°C° 0,1 mm 3 m/S 741 mmHg 86%
    11:00 +12°C° 0 mm 3 m/S 740 mmHg 86%
    12:00 +12°C° 0 mm 3 m/S 740 mmHg 85%
    13:00 +13°C° 0 mm 3 m/S 740 mmHg 84%
    14:00 +12°C° 0,1 mm 3 m/S 740 mmHg 86%
    15:00 +12°C° 0,1 mm 3 m/S 740 mmHg 88%
    16:00 +11°C° 0,1 mm 3 m/S 741 mmHg 90%
    17:00 +11°C° 0,1 mm 3 m/S 741 mmHg 91%
    18:00 +11°C° 0,1 mm 3 m/S 741 mmHg 91%
    19:00 +10°C° 0,1 mm 3 m/S 741 mmHg 92%
    20:00 +10°C° 0,1 mm 3 m/S 741 mmHg 91%
    21:00 +10°C° 0,1 mm 3 m/S 742 mmHg 91%
    22:00 +10°C° 0,1 mm 3 m/S 742 mmHg 91%
    23:00 +10°C° 0,1 mm 3 m/S 742 mmHg 91%

    übermorgen, 13 Dezember, Mittwoch

    Zeit Temperatur Niederschläge Wind Luftdruck Luftfeuchtigkeit
    00:00 +10°C° 0,1 mm 3 m/S 742 mmHg 91%
    01:00 +10°C° 0,1 mm 3 m/S 742 mmHg 90%
    02:00 +10°C° 0,1 mm 3 m/S 741 mmHg 90%
    03:00 +10°C° 0,1 mm 3 m/S 741 mmHg 90%
    04:00 +10°C° 0,1 mm 3 m/S 741 mmHg 90%
    05:00 +10°C° 0,1 mm 3 m/S 741 mmHg 89%
    06:00 +10°C° 0,1 mm 3 m/S 741 mmHg 89%
    07:00 +9°C° 0,1 mm 3 m/S 741 mmHg 88%
    08:00 +10°C° 0,1 mm 4 m/S 741 mmHg 85%
    09:00 +11°C° 0,1 mm 4 m/S 741 mmHg 83%
    10:00 +12°C° 0,1 mm 4 m/S 741 mmHg 80%
    11:00 +12°C° 0,2 mm 4 m/S 740 mmHg 79%
    12:00 +12°C° 0,2 mm 4 m/S 740 mmHg 79%
    13:00 +13°C° 0,2 mm 4 m/S 739 mmHg 79%
    14:00 +12°C° 0,7 mm 4 m/S 739 mmHg 83%
    15:00 +12°C° 0,7 mm 4 m/S 739 mmHg 86%
    16:00 +11°C° 0,7 mm 4 m/S 739 mmHg 90%
    17:00 +11°C° 1,2 mm 4 m/S 739 mmHg 91%
    18:00 +11°C° 1,2 mm 4 m/S 739 mmHg 92%
    19:00 +11°C° 1,2 mm 3 m/S 739 mmHg 93%
    20:00 +11°C° 2,3 mm 3 m/S 739 mmHg 94%
    21:00 +10°C° 2,3 mm 3 m/S 739 mmHg 95%
    22:00 +10°C° 2,3 mm 3 m/S 739 mmHg 96%
    23:00 +10°C° 2 mm 3 m/S 739 mmHg 96%

    14 Dezember, Donnerstag

    Zeit Temperatur Niederschläge Wind Luftdruck Luftfeuchtigkeit
    00:00 +10°C° 2 mm 3 m/S 739 mmHg 96%
    01:00 +10°C° 2 mm 3 m/S 739 mmHg 96%
    02:00 +10°C° 0,3 mm 3 m/S 739 mmHg 96%
    03:00 +9°C° 0,3 mm 2 m/S 739 mmHg 96%
    04:00 +9°C° 0,3 mm 2 m/S 739 mmHg 96%
    05:00 +9°C° 0,1 mm 2 m/S 739 mmHg 95%
    06:00 +8°C° 0,1 mm 2 m/S 739 mmHg 95%
    07:00 +8°C° 0,1 mm 2 m/S 739 mmHg 94%
    08:00 +9°C° 0,1 mm 2 m/S 739 mmHg 91%
    09:00 +9°C° 0,1 mm 2 m/S 739 mmHg 87%
    10:00 +10°C° 0,1 mm 2 m/S 739 mmHg 83%
    11:00 +10°C° 0,1 mm 2 m/S 739 mmHg 82%
    12:00 +10°C° 0,1 mm 3 m/S 739 mmHg 80%
    13:00 +10°C° 0,1 mm 3 m/S 738 mmHg 79%
    14:00 +10°C° 0 mm 3 m/S 738 mmHg 81%
    15:00 +10°C° 0 mm 3 m/S 738 mmHg 83%
    16:00 +9°C° 0 mm 3 m/S 738 mmHg 85%
    17:00 +9°C° 0 mm 3 m/S 738 mmHg 86%
    18:00 +8°C° 0 mm 3 m/S 738 mmHg 87%
    19:00 +8°C° 0 mm 3 m/S 738 mmHg 88%
    20:00 +8°C° 0 mm 3 m/S 738 mmHg 87%
    21:00 +7°C° 0 mm 3 m/S 738 mmHg 86%
    22:00 +7°C° 0 mm 3 m/S 738 mmHg 85%
    23:00 +7°C° 0 mm 3 m/S 738 mmHg 83%

    15 Dezember, Freitag

    Zeit Temperatur Niederschläge Wind Luftdruck Luftfeuchtigkeit
    00:00 +7°C° 0 mm 3 m/S 738 mmHg 81%
    01:00 +7°C° 0 mm 3 m/S 737 mmHg 80%
    02:00 +7°C° 0 mm 3 m/S 737 mmHg 80%
    03:00 +7°C° 0 mm 3 m/S 737 mmHg 80%
    04:00 +7°C° 0 mm 3 m/S 736 mmHg 80%
    05:00 +7°C° 0 mm 3 m/S 736 mmHg 80%
    06:00 +7°C° 0 mm 3 m/S 736 mmHg 81%
    07:00 +7°C° 0 mm 3 m/S 736 mmHg 82%
    08:00 +7°C° 0,1 mm 4 m/S 736 mmHg 79%
    09:00 +8°C° 0,1 mm 4 m/S 736 mmHg 77%
    10:00 +10°C° 0,1 mm 4 m/S 735 mmHg 74%
    11:00 +9°C° 0,3 mm 5 m/S 735 mmHg 76%
    12:00 +9°C° 0,3 mm 6 m/S 734 mmHg 78%
    13:00 +10°C° 0,3 mm 6 m/S 733 mmHg 79%
    14:00 +10°C° 0,8 mm 7 m/S 733 mmHg 83%
    15:00 +10°C° 0,8 mm 7 m/S 732 mmHg 87%
    16:00 +10°C° 0,8 mm 8 m/S 732 mmHg 91%
    17:00 +10°C° 1,2 mm 8 m/S 732 mmHg 91%
    18:00 +10°C° 1,2 mm 8 m/S 732 mmHg 92%
    19:00 +9°C° 1,2 mm 8 m/S 732 mmHg 92%
    20:00 +9°C° 1,6 mm 8 m/S 732 mmHg 92%
    21:00 +9°C° 1,6 mm 8 m/S 732 mmHg 92%
    22:00 +10°C° 1,6 mm 8 m/S 732 mmHg 91%
    23:00 +10°C° 2,7 mm 8 m/S 731 mmHg 92%

    16 Dezember, Samstag

    Zeit Temperatur Niederschläge Wind Luftdruck Luftfeuchtigkeit
    00:00 +10°C° 2,7 mm 8 m/S 731 mmHg 93%
    01:00 +10°C° 2,7 mm 8 m/S 731 mmHg 93%
    02:00 +10°C° 2,3 mm 8 m/S 731 mmHg 93%
    03:00 +10°C° 2,3 mm 8 m/S 731 mmHg 93%
    04:00 +10°C° 2,3 mm 7 m/S 731 mmHg 93%
    05:00 +10°C° 2,5 mm 7 m/S 732 mmHg 93%
    06:00 +10°C° 2,5 mm 7 m/S 732 mmHg 93%
    07:00 +10°C° 2,5 mm 6 m/S 732 mmHg 92%
    08:00 +10°C° 1,7 mm 5 m/S 733 mmHg 91%
    09:00 +11°C° 1,7 mm 4 m/S 733 mmHg 90%
    10:00 +11°C° 1,7 mm 3 m/S 733 mmHg 89%
    11:00 +11°C° 1,8 mm 3 m/S 733 mmHg 89%
    12:00 +12°C° 1,8 mm 2 m/S 733 mmHg 89%
    13:00 +10°C° 1,8 mm 2 m/S 733 mmHg 90%
    14:00 +10°C° 0,8 mm 2 m/S 733 mmHg 90%
    15:00 +10°C° 0,8 mm 2 m/S 733 mmHg 90%
    16:00 +9°C° 0,8 mm 2 m/S 733 mmHg 90%
    17:00 +9°C° 0,6 mm 2 m/S 733 mmHg 89%
    18:00 +9°C° 0,6 mm 2 m/S 734 mmHg 88%
    19:00 +9°C° 0,6 mm 2 m/S 734 mmHg 87%
    20:00 +8°C° 0,6 mm 2 m/S 734 mmHg 88%
    21:00 +9°C° 0,6 mm 1 m/S 734 mmHg 88%
    22:00 +9°C° 0,6 mm 1 m/S 734 mmHg 89%
    23:00 +9°C° 0,6 mm 1 m/S 734 mmHg 89%
    Mehr zeigen